Date String (YYYY-MM-DD hh:mm:ss) UTC,Instrument flags,Ambient pressure (hPa),Sample flow (lpm),Bypass flow (lpm),Sample temperature (°C),Ambient temperature (°C),ASC tube jacket temperature (°C),LED temperature (°C),Box temperature (°C),Sample RH (%),Span deviation,Mass concentration (μg/m³),Mass concentration (μg/m³),Mass concentration (μg/m³)
DateTimeUTC,F1_M11,P_M11,Q1_M11,Q2_M11,T1_M11,T2_M11,T3_M11,T4_M11,T5_M11,U1_M11,ZSPAN_M11,X0_M11,X2_M11,X1_M11
2021-10-17 23:00:00,,0825.5,5.00,0.00,30.1,29.3,00.0,38.9,32.0,10.1,-000.1,0014.53,0006.56,0005.65
2021-10-17 23:01:00,,0825.4,4.99,0.00,30.1,28.8,00.0,38.9,31.9,10.1,-001.2,0014.85,0006.74,0005.77
2021-10-17 23:02:00,,0825.4,5.01,0.00,30.0,26.7,00.0,38.9,31.3,10.2,-001.7,0014.88,0006.82,0005.87
2021-10-17 23:03:00,,0825.5,5.00,0.00,29.8,25.8,00.0,38.8,31.0,10.2,-001.8,0014.71,0006.85,0005.91
2021-10-17 23:04:00,,0825.5,5.00,0.00,29.7,26.1,00.0,38.8,31.0,10.2,-001.9,0014.27,0006.81,0005.89
2021-10-17 23:05:00,,0825.4,4.98,0.00,29.6,26.6,00.0,38.8,31.1,10.3,-001.6,0013.97,0006.84,0005.90
2021-10-17 23:06:00,,0825.4,5.00,0.00,29.6,27.1,00.0,38.7,31.2,10.2,-001.1,0013.94,0006.84,0005.90
2021-10-17 23:07:00,,0825.4,5.00,0.00,29.6,27.5,00.0,38.7,31.3,10.2,-000.5,0013.27,0006.83,0005.88
2021-10-17 23:08:00,,0825.4,5.00,0.00,29.6,27.9,00.0,38.7,31.4,10.1,-000.8,0012.39,0006.76,0005.84
2021-10-17 23:09:00,,0825.4,5.00,0.00,29.7,28.2,00.0,38.7,31.5,09.9,-000.9,0011.84,0006.69,0005.81
2021-10-17 23:10:00,,0825.4,5.00,0.00,29.7,28.4,00.0,38.7,31.6,09.9,-001.2,0012.53,0006.64,0005.77
2021-10-17 23:11:00,,0825.4,5.02,0.00,29.8,28.6,00.0,38.7,31.7,09.9,-001.0,0013.52,0006.58,0005.73
2021-10-17 23:12:00,,0825.4,5.01,0.00,29.8,28.8,00.0,38.7,31.7,09.8,-000.8,0013.69,0006.52,0005.69
2021-10-17 23:13:00,,0825.4,5.00,0.00,29.9,28.9,00.0,38.8,31.8,09.8,-000.5,0014.13,0006.53,0005.67
2021-10-17 23:14:00,,0825.4,4.99,0.00,29.9,29.0,00.0,38.8,31.9,09.7,-001.1,0014.16,0006.52,0005.67
2021-10-17 23:15:00,,0825.4,5.00,0.00,30.0,29.2,00.0,38.8,31.9,09.7,-002.0,0014.13,0006.48,0005.66
2021-10-17 23:16:00,,0825.4,5.01,0.00,30.0,29.3,00.0,38.9,32.0,09.7,-002.7,0014.00,0006.41,0005.64
2021-10-17 23:17:00,,0825.4,5.01,0.00,30.1,29.4,00.0,38.9,32.0,09.7,-003.3,0013.95,0006.38,0005.62
2021-10-17 23:18:00,,0825.4,5.00,0.00,30.1,28.9,00.0,38.9,31.9,09.7,-003.6,0014.08,0006.40,0005.62
2021-10-17 23:19:00,,0825.4,4.99,0.00,30.0,26.8,00.0,38.9,31.3,10.1,-003.6,0014.03,0006.43,0005.66
2021-10-17 23:20:00,,0825.4,5.00,0.00,29.8,25.7,00.0,38.9,31.0,10.3,-003.5,0013.88,0006.54,0005.73
2021-10-17 23:21:00,,0825.3,5.00,0.00,29.7,26.0,00.0,38.8,31.0,10.4,-003.4,0013.22,0006.63,0005.81
2021-10-17 23:22:00,,0825.4,4.99,0.00,29.6,26.5,00.0,38.8,31.1,10.5,-003.1,0012.95,0006.78,0005.91
2021-10-17 23:23:00,,0825.4,5.00,0.00,29.6,27.0,00.0,38.8,31.2,10.6,-002.8,0013.80,0006.89,0006.02
2021-10-17 23:24:00,,0825.3,5.01,0.00,29.6,27.4,00.0,38.7,31.3,10.6,-003.4,0013.71,0006.99,0006.12
2021-10-17 23:25:00,,0825.4,5.00,0.00,29.6,27.8,00.0,38.7,31.4,10.6,-003.3,0014.08,0007.07,0006.20
2021-10-17 23:26:00,,0825.3,4.99,0.00,29.7,28.1,00.0,38.7,31.5,10.7,-002.9,0014.61,0007.18,0006.32
2021-10-17 23:27:00,,0825.4,5.00,0.00,29.7,28.3,00.0,38.7,31.6,10.6,-001.7,0015.43,0007.29,0006.42
2021-10-17 23:28:00,,0825.4,4.99,0.00,29.8,28.5,00.0,38.7,31.7,10.6,-001.0,0015.68,0007.40,0006.54
2021-10-17 23:29:00,,0825.3,5.00,0.00,29.8,28.7,00.0,38.8,31.7,10.6,-000.4,0017.41,0007.52,0006.68
2021-10-17 23:30:00,,0825.4,5.00,0.00,29.9,28.9,00.0,38.8,31.8,10.5,0000.0,0018.12,0007.67,0006.80
2021-10-17 23:31:00,,0825.3,5.00,0.00,29.9,29.0,00.0,38.8,31.9,10.5,-000.2,0018.45,0007.71,0006.85
2021-10-17 23:32:00,,0825.4,4.99,0.00,30.0,29.1,00.0,38.8,31.9,10.5,-000.3,0019.12,0007.79,0006.90
2021-10-17 23:33:00,,0825.4,5.01,0.00,30.0,29.2,00.0,38.9,32.0,10.4,-001.2,0018.77,0007.81,0006.95
2021-10-17 23:34:00,,0825.4,4.99,0.00,30.1,29.4,00.0,38.9,32.0,10.4,-002.1,0017.86,0007.81,0006.97
2021-10-17 23:35:00,,0825.3,4.99,0.00,30.1,29.0,00.0,38.9,31.9,10.3,-002.0,0017.72,0007.83,0007.00
2021-10-17 23:36:00,,0825.3,5.00,0.00,30.0,26.8,00.0,38.9,31.3,10.3,-002.1,0017.91,0007.86,0007.04
2021-10-17 23:37:00,,0825.3,4.99,0.00,29.8,25.6,00.0,38.9,30.9,10.4,-002.5,0018.24,0007.91,0007.06
2021-10-17 23:38:00,,0825.3,5.01,0.00,29.7,25.9,00.0,38.8,31.0,10.5,-003.3,0017.51,0007.90,0007.07
2021-10-17 23:39:00,,0825.3,5.00,0.00,29.6,26.4,00.0,38.8,31.0,10.6,-003.5,0017.52,0007.88,0007.05
2021-10-17 23:40:00,,0825.3,5.01,0.00,29.6,26.9,00.0,38.8,31.2,10.6,-003.2,0016.56,0007.86,0007.02
2021-10-17 23:41:00,,0825.2,5.00,0.00,29.6,27.4,00.0,38.7,31.3,10.6,-003.3,0016.08,0007.85,0006.98
2021-10-17 23:42:00,,0825.2,4.98,0.00,29.6,27.8,00.0,38.7,31.4,10.6,-003.4,0016.94,0007.87,0006.96
2021-10-17 23:43:00,,0825.2,5.01,0.00,29.6,28.1,00.0,38.7,31.5,10.5,-003.4,0017.32,0007.88,0006.97
2021-10-17 23:44:00,,0825.2,5.00,0.00,29.7,28.3,00.0,38.7,31.6,10.4,0000.1,0017.49,0007.90,0006.97
2021-10-17 23:45:00,,0825.2,5.00,0.00,29.7,28.5,00.0,38.7,31.7,10.4,0013.9,0017.71,0007.87,0006.97
2021-10-17 23:46:00,,0825.2,4.99,0.00,29.8,28.7,00.0,38.8,31.7,10.4,0013.2,0017.79,0007.87,0006.96
2021-10-17 23:47:00,,0825.2,5.00,0.00,29.8,28.9,00.0,38.8,31.8,10.4,0012.7,0017.71,0007.89,0006.97
2021-10-17 23:48:00,,0825.2,5.00,0.00,29.9,29.0,00.0,38.8,31.8,10.5,0011.8,0016.70,0007.87,0006.96
2021-10-17 23:49:00,,0825.2,5.00,0.00,29.9,29.2,00.0,38.8,31.9,10.4,0010.9,0016.83,0007.87,0006.95
2021-10-17 23:50:00,,0825.2,4.99,0.00,30.0,29.3,00.0,38.9,31.9,10.4,0012.0,0016.84,0007.90,0006.96
2021-10-17 23:51:00,,0825.2,5.00,0.00,30.0,29.4,00.0,38.9,32.0,10.5,0013.4,0017.22,0007.89,0006.98
2021-10-17 23:52:00,,0825.2,5.01,0.00,30.0,28.0,00.0,38.9,31.7,10.5,0010.8,0016.89,0007.86,0006.98
2021-10-17 23:53:00,,0825.2,4.99,0.00,29.9,26.6,00.0,38.9,31.3,10.5,-001.9,0016.03,0007.84,0006.99
2021-10-17 23:54:00,,0825.2,5.00,0.00,29.8,26.7,00.0,38.9,31.3,10.5,-003.1,0015.33,0007.86,0007.02
2021-10-17 23:55:00,,0825.2,5.00,0.00,29.7,27.1,00.0,38.9,31.3,10.4,-003.0,0015.02,0007.89,0007.04
2021-10-17 23:56:00,,0825.2,5.01,0.00,29.7,27.5,00.0,38.8,31.4,10.4,-002.3,0015.33,0007.90,0007.03
2021-10-17 23:57:00,,0825.2,5.00,0.00,29.8,27.9,00.0,38.8,31.5,10.4,-002.6,0015.90,0007.90,0007.01
2021-10-17 23:58:00,,0825.2,4.99,0.00,29.8,28.2,00.0,38.8,31.6,10.4,-002.8,0016.18,0007.88,0006.98
2021-10-17 23:59:00,,0825.2,5.01,0.00,29.8,28.4,00.0,38.8,31.7,10.4,-002.9,0017.34,0007.92,0006.95
